[Iaude] MPEC V96: 2022 UA34 [a=1.02,e=0.23,i=11.8,H=23.83]
    mpec at marsden.cfa.harvard.edu 
    mpec at marsden.cfa.harvard.edu
       
    Tue Nov  7 09:20:49 EST 2023
    
    
  
M.P.E.C. 2023-V96                              Issued 2023 November 7, 14:19 UT
     The Minor Planet Electronic Circulars contain information on unusual
         minor planets, routine data on comets and natural satellites,
         and occasional editorial announcements.  They are published
    on behalf of Division F of the International Astronomical Union by the
          Minor Planet Center, Smithsonian Astrophysical Observatory,
                          Cambridge, MA 02138, U.S.A.
			  
             Prepared using the Tamkin Foundation Computer Network
                              MPC at CFA.HARVARD.EDU
            URL https://www.minorplanetcenter.net/    ISSN 1523-6714
                                   2022 UA34                                    
                           Revision to MPEC 2022-V73                            
Additional Observations:
     K22U34A KC2023 11 05.10192023 01 58.318+32 44 44.81         21.92GVEV096I52
     K22U34A KC2023 11 05.11120123 01 57.241+32 44 05.71         21.48GVEV096I52
     K22U34A KC2023 11 05.11584823 01 56.672+32 43 46.52         21.60GVEV096I52
     K22U34A KC2023 11 06.06654123 00 27.022+31 36 45.94         21.60GVEV096I52
     K22U34A KC2023 11 06.07040823 00 26.550+31 36 29.41         21.34GVEV096I52
     K22U34A KC2023 11 06.07427723 00 26.150+31 36 13.50         22.09GVEV096I52
     K22U34A KC2023 11 06.07814723 00 25.700+31 35 57.19         21.49GVEV096I52
Observer details:
I52 Steward Observatory, Mt. Lemmon Station.  Observer R. A. Kowalski.
    Measurers E. C. Beshore, D. Fay, J. B. Fazekas, D. C. Fuls, A. R. Gibbs,
    A. D. Grauer, H. Groeller, J. K. Hogan, R. A. Kowalski, S. M. Larson, G.
    J. Leonard, D. Rankin, R. L. Seaman, F. C. Shelly, K. W. Wierzchos.  1.0-m
    prime focus + CCD.
First and last observations above in comparison with prediction:
Residuals in seconds of arc (or two decimals in degrees), reference and Delta-T
231105 I52 0.13- 0.15-    231106 I52 0.13- 0.15-    E2023-P83   +0.02 days
Orbital elements:
2022 UA34                                                Earth MOID = 0.0054 AU
Epoch 2023 Sept. 13.0 TT = JDT 2460200.5                Veres                   
M 210.03110              (2000.0)            P               Q                  
n   0.95250723     Peri.  276.64213     -0.92178658     -0.34190420             
a   1.0230351      Node   243.49793     +0.38381653     -0.87131484             
e   0.2287684      Incl.   11.78558     -0.05472079     -0.35201132             
P   1.03           H   23.83          G   0.15           U   2                  
Residuals in seconds of arc
221030 V00  0.1-  0.1+    221106 290  0.4-  0.0     221119 I52  0.1-  0.0
221030 V00  0.1-  0.2-    221106 290  0.0   0.1+    221120 033  0.1-  0.3+
221030 V00  0.2+  0.2+    221106 290  0.4-  0.1+    221120 033  0.2+  0.0
221030 V00  0.0   0.1+    221114 033  0.9+  0.2+    221120 033  0.2+  0.4+
221030 V00  0.0   0.1-    221114 033  0.8+  0.0     221123 I52  0.1-  0.5-
221030 V00  0.1+  0.1+    221114 033  0.3+  0.0     221123 I52  0.2-  0.1+
221030 V00  0.0   0.0     221115 033  0.5+  0.1-    221123 I52  0.1+  0.0
221030 V00  0.1-  0.1+    221115 033  0.1+  0.1-    221123 I52  0.4-  0.1+
221031 V00  0.5+  0.0     221115 033  0.1+  0.2-    231105 I52  0.2-  0.3+
221031 V00  0.5+  0.1-    221115 033  0.1+  0.4-    231105 I52  0.2+  0.3-
221031 V00 (0.8+  0.3-)   221119 033  2.0-  1.2+    231105 I52  0.0   0.2-
221031 V00 (0.7+  0.1-)   221119 033  0.1-  0.2-    231106 I52  0.3+  0.1+
221103 H21  0.3-  0.0     221119 033  0.0   0.2-    231106 I52  0.2-  0.2-
221103 H21  0.1-  0.2+    221119 I52  0.1+  0.1-    231106 I52  0.1+  0.2+
221103 H21  0.1-  0.1+    221119 I52  0.0   0.0     231106 I52  0.1-  0.2+
Ephemeris:
2022 UA34                a,e,i = 1.02, 0.23, 12                  q = 0.7890
Date    TT    R. A. (2000) Decl.     Delta      r    Elong.  Phase     V
2023 10 08    00 24 05.7 +52 00 23   0.2562  1.1896   133.2    37.8    22.8
...
2023 10 23    23 33 11.3 +45 18 26   0.2050  1.1501   135.4    37.4    22.2
...
2023 10 31    23 11 51.2 +38 18 35   0.1853  1.1257   132.2    40.8    22.0
...
2023 11 06    23 00 31.7 +31 41 36   0.1743  1.1061   127.4    45.4    22.0
2023 11 07    22 59 02.6 +30 29 52   0.1729  1.1027   126.4    46.3    22.0
2023 11 08    22 57 40.4 +29 16 47   0.1715  1.0993   125.4    47.3    22.0
...
2023 11 14    22 51 42.9 +21 36 08   0.1650  1.0783   118.6    53.7    22.0
...
2023 11 22    22 49 00.7 +10 52 07   0.1608  1.0488   108.0    63.6    22.2
...
2023 12 07    22 53 37.7 -08 51 34   0.1629  0.9904    87.1    83.5    22.8
A. U. Tomatic                (C) Copyright 2023 MPC           M.P.E.C. 2023-V96
    
    
More information about the Iaude
mailing list